Change the Weather History Date:

Tuesday, August 19, 2014

  Actual Average Record
Temperature  
Mean Temperature 64 °F -  
Max Temperature 79 °F 80 °F 91 °F (2002)
Min Temperature 48 °F 56 °F 46 °F (2007)
Degree Days  
Heating Degree Days 2    
Growing Degree Days 14 (Base 50)    
Moisture  
Dew Point 52 °F    
Average Humidity 72    
Maximum Humidity 93    
Minimum Humidity 43    
Precipitation  
Precipitation 0.00 in - - ()
Sea Level Pressure  
Sea Level Pressure 29.92 in    
Wind  
Wind Speed 1 mph (SE)    
Max Wind Speed 6 mph    
Max Gust Speed -    
Visibility 9 miles    
Events      
Averages and records for this station are not official NWS values.
T = Trace of Precipitation, MM = Missing Value Source: NWS Daily Summary

Daily Weather History Graph

Daily Weather History Graph

Search for Another Location

Airport or City:

Trip Planner

Search our weather history database for the weather conditions in past years. The results will help you decide how hot, cold, wet, or windy it might be!

Date:

Astronomy

Aug. 19, 2014 Rise Set
Actual Time 6:02 AM EDT 7:45 PM EDT
Civil Twilight 5:32 AM EDT 8:15 PM EDT
Nautical Twilight 4:56 AM EDT 8:51 PM EDT
Astronomical Twilight 4:17 AM EDT 9:29 PM EDT
Moon 12:50 AM EDT (8/19) 3:41 PM EDT (8/19)
Length of Visible Light 14h 42m
Length of Day
13h 42m
Waning Crescent, 29% of the Moon is Illuminated
Aug 19
Waning Crescent
Aug 25
New
Sep 2
First Quarter
Sep 8
Full
Sep 15
Last Quarter

Hourly Weather History & Observations

Time (EDT) Temp. Dew Point Humidity Pressure Visibility Wind Dir Wind Speed Gust Speed Precip Events Conditions
12:53 AM 53.1 °F 50.0 °F 89% 29.91 in 10.0 mi Calm Calm - N/A   Clear
1:53 AM 53.1 °F 50.0 °F 89% 29.90 in 10.0 mi Calm Calm - N/A   Clear
2:53 AM 52.0 °F 48.9 °F 89% 29.90 in 10.0 mi Calm Calm - N/A   Clear
3:53 AM 51.1 °F 48.0 °F 89% 29.90 in 10.0 mi Calm Calm - N/A   Clear
4:53 AM 48.9 °F 46.9 °F 93% 29.91 in 3.0 mi Calm Calm - N/A   Clear
5:00 AM 48.9 °F 46.9 °F 93% 29.91 in 2.5 mi Calm Calm - N/A   Clear
5:08 AM 48.9 °F 46.9 °F 93% 29.91 in 10.0 mi Calm Calm - N/A   Clear
5:53 AM 48.9 °F 46.0 °F 90% 29.93 in 10.0 mi Calm Calm - N/A   Clear
6:53 AM 50.0 °F 48.0 °F 93% 29.94 in 10.0 mi North - - N/A   Clear
7:53 AM 55.9 °F 52.0 °F 87% 29.94 in 10.0 mi Calm Calm - N/A   Clear
8:53 AM 60.1 °F 52.0 °F 75% 29.94 in 10.0 mi NE 3.5 mph - N/A   Clear
9:53 AM 66.9 °F 51.1 °F 57% 29.95 in 10.0 mi ENE 3.5 mph - N/A   Clear
10:53 AM 70.0 °F 51.1 °F 51% 29.95 in 10.0 mi Variable 4.6 mph - N/A   Clear
11:53 AM 72.0 °F 48.9 °F 44% 29.94 in 10.0 mi Calm Calm - N/A   Clear
12:53 PM 75.0 °F 52.0 °F 44% 29.93 in 10.0 mi Variable 3.5 mph - N/A   Clear
1:53 PM 77.0 °F 53.1 °F 43% 29.91 in 10.0 mi South 4.6 mph - N/A   Clear
2:53 PM 77.0 °F 54.0 °F 45% 29.90 in 10.0 mi SSW 5.8 mph - N/A   Clear
3:53 PM 78.1 °F 54.0 °F 43% 29.90 in 10.0 mi Variable 5.8 mph - N/A   Clear
4:53 PM 79.0 °F 55.0 °F 44% 29.89 in 10.0 mi Variable 5.8 mph - N/A   Clear
5:53 PM 78.1 °F 54.0 °F 43% 29.89 in 10.0 mi SE 3.5 mph - N/A   Clear
6:53 PM 75.9 °F 55.9 °F 50% 29.89 in 10.0 mi SE 3.5 mph - N/A   Clear
7:53 PM 68.0 °F 61.0 °F 78% 29.91 in 10.0 mi Calm Calm - N/A   Clear
8:53 PM 63.0 °F 60.1 °F 90% 29.93 in 10.0 mi Calm Calm - N/A   Clear
9:53 PM 61.0 °F 57.9 °F 90% 29.94 in 10.0 mi Calm Calm - N/A   Clear
10:53 PM 60.1 °F 57.0 °F 90% 29.94 in 10.0 mi Calm Calm - N/A   Clear
11:53 PM 60.1 °F 57.0 °F 90% 29.96 in 10.0 mi Calm Calm - N/A   Clear